Columbia, SC

12:06 AM EDT on April 21, 2018 (GMT -0400)
Columbia Metro

Weather History for KCAE - June, 2013

Change the Weather History Date:

Friday, June 21, 2013

  Actual Average Record
Temperature  
Mean Temperature 78 °F 80 °F  
Max Temperature 87 °F 91 °F 106 °F (1990)
Min Temperature 68 °F 70 °F 55 °F (1966)
Degree Days  
Heating Degree Days 0 0  
Month to date heating degree days 0 0  
Since 1 June heating degree days 0 0  
Since 1 July heating degree days 2261 2551  
Cooling Degree Days 13 15  
Month to date cooling degree days 291 280  
Year to date cooling degree days 611 601  
Since 1 June cooling degree days 291 280  
Growing Degree Days 28 (Base 50)    
Moisture  
Dew Point 58 °F    
Average Humidity 58    
Maximum Humidity 84    
Minimum Humidity 32    
Precipitation  
Precipitation 0.00 in 0.16 in 2.98 in (2004)
Month to date precipitation 4.06 3.26  
Year to date precipitation 22.68 19.77  
Sea Level Pressure  
Sea Level Pressure 30.18 in    
Wind  
Wind Speed 6 mph (NE)    
Max Wind Speed 16 mph    
Max Gust Speed 24 mph    
Visibility 10 miles    
Events      
T = Trace of Precipitation, MM = Missing Value Source: NWS Daily Summary

Daily Weather History Graph

Daily Weather History Graph

Search for Another Location

Airport or City:

Astronomy

Jun. 21, 2013 Rise Set
Actual Time 6:13 AM EDT 8:38 PM EDT
Civil Twilight 5:44 AM EDT 9:08 PM EDT
Nautical Twilight 5:08 AM EDT 9:43 PM EDT
Astronomical Twilight 4:29 AM EDT 10:23 PM EDT
Moon 6:50 PM EDT 4:24 AM EDT
Length of Visible Light 15h 23m
Length of Day
14h 24m
Waxing Gibbous, 95% of the Moon is Illuminated
Jun 21
Waxing Gibbous
Jun 23
Full
Jun 30
Last Quarter
Jul 8
New
Jul 15
First Quarter

Hourly Weather History & Observations

Time (EDT) Temp. Heat Index Dew Point Humidity Pressure Visibility Wind Dir Wind Speed Gust Speed Precip Events Conditions
12:56 AM 71.1 °F - 64.0 °F 78% 30.17 in 10.0 mi East 5.8 mph - N/A   Clear
1:56 AM 69.1 °F - 64.0 °F 84% 30.18 in 10.0 mi Calm Calm - N/A   Clear
2:56 AM 72.0 °F - 63.0 °F 73% 30.17 in 10.0 mi NNE 3.5 mph - N/A   Clear
3:56 AM 69.1 °F - 62.1 °F 78% 30.17 in 10.0 mi Calm Calm - N/A   Clear
4:56 AM 70.0 °F - 62.1 °F 76% 30.17 in 10.0 mi NNE 4.6 mph - N/A   Clear
5:56 AM 69.1 °F - 60.1 °F 73% 30.18 in 10.0 mi NE 5.8 mph - N/A   Clear
6:56 AM 69.1 °F - 59.0 °F 70% 30.20 in 10.0 mi ENE 4.6 mph - N/A   Clear
7:56 AM 70.0 °F - 57.0 °F 63% 30.21 in 10.0 mi ENE 8.1 mph - N/A   Clear
8:56 AM 73.0 °F - 55.0 °F 53% 30.22 in 10.0 mi ENE 6.9 mph - N/A   Clear
9:56 AM 77.0 °F - 54.0 °F 45% 30.23 in 10.0 mi East 10.4 mph - N/A   Clear
10:56 AM 79.0 °F - 54.0 °F 42% 30.23 in 10.0 mi ENE 8.1 mph - N/A   Clear
11:56 AM 82.0 °F 81.7 °F 57.0 °F 42% 30.22 in 10.0 mi ENE 9.2 mph - N/A   Clear
12:56 PM 84.0 °F 83.3 °F 57.0 °F 40% 30.21 in 10.0 mi NE 8.1 mph - N/A   Partly Cloudy
1:56 PM 84.9 °F 83.7 °F 55.9 °F 37% 30.19 in 10.0 mi ENE 9.2 mph - N/A   Partly Cloudy
2:56 PM 86.0 °F 84.7 °F 55.9 °F 36% 30.18 in 10.0 mi North 9.2 mph - N/A   Partly Cloudy
3:56 PM 87.1 °F 85.3 °F 55.0 °F 33% 30.16 in 10.0 mi NNE 8.1 mph 18.4 mph N/A   Partly Cloudy
4:56 PM 86.0 °F 84.5 °F 55.0 °F 35% 30.15 in 10.0 mi NNE 6.9 mph - N/A   Partly Cloudy
5:56 PM 86.0 °F 84.2 °F 54.0 °F 33% 30.14 in 10.0 mi North 11.5 mph 19.6 mph N/A   Partly Cloudy
6:56 PM 84.9 °F 83.3 °F 54.0 °F 34% 30.14 in 10.0 mi North 6.9 mph - N/A   Partly Cloudy
7:56 PM 82.9 °F 82.4 °F 57.0 °F 41% 30.14 in 10.0 mi NNE 6.9 mph - N/A   Partly Cloudy
8:56 PM 81.0 °F 81.3 °F 59.0 °F 47% 30.15 in 10.0 mi NNE 5.8 mph - N/A   Partly Cloudy
9:56 PM 78.1 °F - 60.1 °F 54% 30.16 in 10.0 mi North 4.6 mph - N/A   Clear
10:56 PM 75.9 °F - 60.1 °F 58% 30.16 in 10.0 mi NNE 4.6 mph - N/A   Clear
11:56 PM 72.0 °F - 62.1 °F 71% 30.17 in 10.0 mi Calm Calm - N/A   Clear